Date String (YYYY-MM-DD hh:mm:ss) UTC,Instrument flags,Ambient pressure (hPa),Sample flow (lpm),Bypass flow (lpm),Sample temperature (°C),Ambient temperature (°C),ASC tube jacket temperature (°C),LED temperature (°C),Box temperature (°C),Sample RH (%),Span deviation,Mass concentration (μg/m³),Mass concentration (μg/m³),Mass concentration (μg/m³)
DateTimeUTC,F1_M11,P_M11,Q1_M11,Q2_M11,T1_M11,T2_M11,T3_M11,T4_M11,T5_M11,U1_M11,ZSPAN_M11,X0_M11,X2_M11,X1_M11
2021-10-08 22:00:00,,0824.4,5.00,0.00,29.6,28.5,00.0,38.5,31.4,15.0,0000.0,0008.54,0003.17,0002.26
2021-10-08 22:01:00,,0824.4,5.00,0.00,29.6,28.6,00.0,38.6,31.4,15.0,0000.0,0008.08,0003.14,0002.26
2021-10-08 22:02:00,,0824.4,5.00,0.00,29.6,28.7,00.0,38.6,31.5,14.8,0000.0,0006.24,0003.11,0002.25
2021-10-08 22:03:00,,0824.3,4.99,0.00,29.7,28.8,00.0,38.6,31.5,14.5,0000.0,0006.13,0003.11,0002.25
2021-10-08 22:04:00,,0824.3,5.01,0.00,29.7,28.9,00.0,38.6,31.6,14.5,0000.0,0005.52,0003.12,0002.26
2021-10-08 22:05:00,,0824.2,5.01,0.00,29.7,28.9,00.0,38.7,31.6,14.6,0000.0,0005.85,0003.16,0002.28
2021-10-08 22:06:00,,0824.4,4.99,0.00,29.7,27.9,00.0,38.7,31.4,14.6,0000.0,0006.24,0003.14,0002.28
2021-10-08 22:07:00,,0824.3,5.01,0.00,29.6,25.8,00.0,38.6,30.8,14.8,0000.0,0006.52,0003.16,0002.27
2021-10-08 22:08:00,,0824.3,4.99,0.00,29.4,25.4,00.0,38.6,30.6,14.9,0000.0,0006.52,0003.15,0002.26
2021-10-08 22:09:00,,0824.4,5.01,0.00,29.3,25.8,00.0,38.6,30.7,14.9,0000.0,0006.51,0003.12,0002.26
2021-10-08 22:10:00,,0824.3,5.00,0.00,29.3,26.3,00.0,38.5,30.8,14.8,0000.0,0006.67,0003.05,0002.24
2021-10-08 22:11:00,,0824.3,4.98,0.00,29.2,26.8,00.0,38.5,30.9,15.3,0000.0,0007.33,0003.10,0002.24
2021-10-08 22:12:00,,0824.3,5.01,0.00,29.3,27.2,00.0,38.4,31.0,15.6,0000.0,0007.78,0003.16,0002.24
2021-10-08 22:13:00,,0824.2,5.00,0.00,29.3,27.5,00.0,38.4,31.0,15.6,0000.0,0008.13,0003.15,0002.24
2021-10-08 22:14:00,,0824.3,5.01,0.00,29.3,27.7,00.0,38.4,31.1,15.8,0000.0,0008.21,0003.15,0002.23
2021-10-08 22:15:00,,0824.3,4.99,0.00,29.3,27.9,00.0,38.4,31.2,15.8,0000.0,0008.15,0003.14,0002.24
2021-10-08 22:16:00,,0824.2,5.01,0.00,29.4,28.1,00.0,38.4,31.2,15.7,0000.0,0008.25,0003.13,0002.22
2021-10-08 22:17:00,,0824.2,5.00,0.00,29.4,28.3,00.0,38.4,31.3,15.6,0000.0,0008.61,0003.14,0002.20
2021-10-08 22:18:00,,0824.2,5.00,0.00,29.4,28.4,00.0,38.4,31.3,15.4,0000.0,0008.78,0003.11,0002.18
2021-10-08 22:19:00,,0824.2,4.99,0.00,29.5,28.5,00.0,38.5,31.4,15.5,0000.0,0008.66,0003.08,0002.16
2021-10-08 22:20:00,,0824.2,5.00,0.00,29.5,28.6,00.0,38.5,31.4,15.4,0000.0,0008.69,0003.06,0002.13
2021-10-08 22:21:00,,0824.2,5.01,0.00,29.6,28.7,00.0,38.5,31.5,15.0,0000.0,0008.74,0003.10,0002.13
2021-10-08 22:22:00,,0824.2,4.99,0.00,29.6,28.8,00.0,38.5,31.5,14.9,0000.0,0008.34,0003.10,0002.12
2021-10-08 22:23:00,,0824.2,5.02,0.00,29.6,28.9,00.0,38.5,31.5,14.8,0000.0,0008.21,0002.98,0002.12
2021-10-08 22:24:00,,0824.2,5.00,0.00,29.7,29.0,00.0,38.6,31.6,14.8,0000.0,0008.62,0002.95,0002.12
2021-10-08 22:25:00,,0824.3,5.00,0.00,29.7,29.0,00.0,38.6,31.6,14.8,0000.0,0008.71,0002.97,0002.11
2021-10-08 22:26:00,,0824.2,5.00,0.00,29.8,29.0,00.0,38.6,31.7,14.9,0000.0,0008.68,0002.95,0002.08
2021-10-08 22:27:00,,0824.2,5.00,0.00,29.7,27.6,00.0,38.6,31.3,15.0,0000.0,0008.86,0002.90,0002.06
2021-10-08 22:28:00,,0824.3,4.99,0.00,29.6,26.4,00.0,38.6,31.0,15.1,0000.0,0008.46,0002.90,0002.06
2021-10-08 22:29:00,,0824.2,5.00,0.00,29.5,26.6,00.0,38.6,31.0,15.2,0000.0,0008.25,0002.93,0002.06
2021-10-08 22:30:00,,0824.2,5.00,0.00,29.5,27.0,00.0,38.6,31.1,15.2,0000.0,0008.57,0002.98,0002.05
2021-10-08 22:31:00,,0824.2,5.01,0.00,29.5,27.3,00.0,38.6,31.1,15.2,0000.0,0009.22,0002.93,0002.03
2021-10-08 22:32:00,,0824.1,4.98,0.00,29.5,27.7,00.0,38.5,31.2,15.2,0000.0,0010.29,0002.93,0002.03
2021-10-08 22:33:00,,0824.1,5.01,0.00,29.5,27.9,00.0,38.5,31.3,15.3,0000.0,0011.42,0002.92,0002.02
2021-10-08 22:34:00,,0824.1,5.00,0.00,29.5,28.2,00.0,38.5,31.3,15.2,0000.0,0011.81,0002.90,0002.00
2021-10-08 22:35:00,,0824.0,5.00,0.00,29.6,28.4,00.0,38.5,31.4,15.2,0000.0,0011.03,0002.90,0001.98
2021-10-08 22:36:00,,0824.0,5.00,0.00,29.6,28.5,00.0,38.6,31.4,15.3,0000.0,0010.99,0002.80,0001.96
2021-10-08 22:37:00,,0824.0,5.01,0.00,29.6,28.7,00.0,38.6,31.5,15.3,0000.0,0011.33,0002.79,0001.95
2021-10-08 22:38:00,,0824.0,5.00,0.00,29.7,28.8,00.0,38.6,31.5,15.3,0000.0,0011.21,0002.78,0001.94
2021-10-08 22:39:00,,0824.0,4.99,0.00,29.7,28.9,00.0,38.6,31.6,15.2,0000.0,0010.81,0002.75,0001.90
2021-10-08 22:40:00,,0824.0,5.01,0.00,29.8,29.0,00.0,38.7,31.6,15.3,0000.0,0011.25,0002.73,0001.89
2021-10-08 22:41:00,,0824.0,5.00,0.00,29.8,28.9,00.0,38.7,31.7,15.2,0000.0,0011.22,0002.62,0001.86
2021-10-08 22:42:00,,0824.0,5.00,0.00,29.7,27.4,00.0,38.7,31.2,15.3,0000.0,0010.81,0002.58,0001.85
2021-10-08 22:43:00,,0824.0,4.98,0.00,29.5,25.5,00.0,38.7,30.7,15.6,0000.0,0010.64,0002.56,0001.84
2021-10-08 22:44:00,,0824.0,5.00,0.00,29.4,25.5,00.0,38.6,30.7,15.8,0000.0,0009.82,0002.55,0001.84
2021-10-08 22:45:00,,0824.0,5.01,0.00,29.3,26.0,00.0,38.6,30.8,15.9,0000.0,0009.51,0002.63,0001.87
2021-10-08 22:46:00,,0824.0,5.00,0.00,29.3,26.5,00.0,38.5,30.9,16.1,0000.0,0009.43,0002.67,0001.87
2021-10-08 22:47:00,,0824.0,5.00,0.00,29.3,26.9,00.0,38.5,31.0,16.4,0000.0,0009.72,0002.73,0001.88
2021-10-08 22:48:00,,0824.1,4.99,0.00,29.3,27.3,00.0,38.5,31.0,16.3,0000.0,0009.49,0002.73,0001.90
2021-10-08 22:49:00,,0824.1,5.00,0.00,29.3,27.6,00.0,38.5,31.1,15.9,0000.0,0009.28,0002.74,0001.90
2021-10-08 22:50:00,,0824.1,5.02,0.00,29.4,27.9,00.0,38.5,31.1,16.1,0000.0,0009.22,0002.69,0001.91
2021-10-08 22:51:00,,0824.1,5.00,0.00,29.4,28.1,00.0,38.5,31.2,16.0,0000.0,0008.67,0002.67,0001.92
2021-10-08 22:52:00,,0824.1,4.99,0.00,29.4,28.3,00.0,38.5,31.3,16.0,0000.0,0008.80,0002.74,0001.95
2021-10-08 22:53:00,,0823.9,5.00,0.00,29.5,28.4,00.0,38.5,31.3,15.9,0000.0,0008.92,0002.80,0001.99
2021-10-08 22:54:00,,0824.0,5.01,0.00,29.5,28.5,00.0,38.5,31.4,15.9,0000.0,0007.93,0002.81,0002.01
2021-10-08 22:55:00,,0823.9,4.99,0.00,29.5,28.6,00.0,38.5,31.4,15.8,0000.0,0008.16,0002.81,0002.03
2021-10-08 22:56:00,,0824.0,5.01,0.00,29.6,28.7,00.0,38.5,31.5,15.9,0000.0,0008.55,0002.87,0002.06
2021-10-08 22:57:00,,0823.9,4.99,0.00,29.6,28.8,00.0,38.5,31.5,15.9,0000.0,0008.67,0002.91,0002.09
2021-10-08 22:58:00,,0823.9,4.98,0.00,29.7,28.9,00.0,38.6,31.5,15.9,0000.0,0008.32,0002.99,0002.12
2021-10-08 22:59:00,,0823.9,5.01,0.00,29.7,28.9,00.0,38.6,31.6,16.0,0000.0,0008.52,0003.10,0002.15
